Temp
-7 -7 -7 -7 -7 -7 -7 -7 -6 -6 -6 -6 -6 -5 -5 -5 -5 -5 -5 -5 -5 -5 -5 -5 -5 -4 -5 -5 -6 -6 -8 -10 -7 -7 -8 -8 -9 -8 -8 -8 -8 -8 -8 -8 -7
-7 -7 -7 -7 -7 -7 -6 -6 -6 -6 -6 -6 -6 -5 -5 -5 -5 -5 -5 -5 -5 -5 -5 -5 -4 -5 -5 -5 -5 -6 -9 -9 -7 -7 -7 -9 -9 -9 -8 -8 -8 -8 -8 -8 -8
-7 -7 -7 -7 -6 -6 -6 -6 -6 -6 -6 -6 -6 -5 -5 -5 -5 -5 -5 -5 -5 -5 -5 -5 -5 -5 -5 -5 -5 -7 -9 -8 -7 -6 -7 -9 -9 -9 -8 -8 -9 -8 -8 -8 -9
-7 -7 -7 -7 -6 -7 -6 -6 -6 -6 -6 -6 -5 -5 -5 -5 -5 -5 -5 -5 -5 -5 -5 -5 -5 -5 -5 -6 -6 -8 -9 -8 -7 -7 -7 -9 -10 -9 -9 -8 -8 -8 -8 -9 -9
-7 -7 -7 -7 -7 -7 -6 -6 -6 -6 -6 -6 -6 -5 -5 -5 -5 -5 -5 -5 -5 -5 -5 -5 -5 -6 -6 -7 -6 -8 -9 -7 -6 -6 -6 -7 -9 -9 -8 -8 -8 -9 -8 -8 -8
-7 -7 -7 -7 -7 -7 -6 -6 -6 -6 -6 -6 -5 -5 -5 -5 -5 -5 -5 -5 -5 -5 -5 -6 -6 -5 -6 -6 -7 -8 -8 -7 -5 -5 -6 -6 -9 -8 -8 -8 -9 -9 -8 -8 -9
-7 -7 -7 -7 -7 -7 -6 -6 -6 -6 -6 -6 -5 -5 -5 -5 -5 -5 -5 -5 -5 -5 -5 -5 -5 -5 -5 -6 -6 -8 -7 -5 -4 -5 -6 -7 -8 -9 -9 -9 -9 -8 -9 -9 -9
-7 -7 -7 -7 -7 -7 -7 -7 -6 -6 -6 -6 -6 -6 -5 -5 -6 -5 -5 -5 -5 -5 -5 -5 -5 -5 -6 -7 -7 -7 -6 -6 -5 -5 -6 -7 -7 -8 -9 -10 -9 -9 -9 -9 -10
-8 -7 -7 -7 -7 -7 -7 -7 -7 -6 -6 -6 -6 -6 -6 -6 -6 -6 -6 -6 -6 -5 -5 -5 -5 -5 -6 -7 -7 -7 -6 -6 -6 -5 -6 -6 -7 -8 -9 -9 -10 -10 -10 -10 -10
-8 -8 -8 -8 -7 -7 -7 -7 -7 -7 -7 -6 -6 -7 -6 -6 -6 -6 -6 -6 -6 -6 -6 -6 -6 -6 -6 -6 -6 -7 -7 -7 -7 -7 -8 -8 -8 -9 -9 -9 -10 -10 -11 -11 -11
-8 -8 -8 -8 -8 -8 -7 -7 -7 -7 -7 -7 -7 -7 -6 -7 -6 -6 -6 -6 -7 -7 -7 -7 -6 -7 -7 -7 -8 -8 -8 -8 -9 -10 -10 -8 -7 -8 -7 -8 -10 -11 -10 -11 -11
-8 -8 -8 -8 -8 -8 -8 -7 -7 -7 -8 -7 -7 -7 -7 -7 -7 -7 -7 -7 -7 -7 -7 -7 -7 -7 -7 -8 -8 -9 -9 -9 -9 -11 -11 -10 -9 -7 -7 -7 -9 -9 -9 -10 -10
-8 -8 -8 -8 -8 -8 -8 -7 -7 -7 -8 -8 -8 -8 -7 -7 -7 -7 -7 -7 -7 -7 -7 -7 -8 -8 -8 -8 -9 -9 -9 -9 -10 -11 -11 -11 -11 -10 -9 -8 -9 -9 -10 -10 -10
-8 -8 -8 -8 -8 -8 -8 -7 -7 -8 -8 -8 -8 -9 -8 -8 -8 -7 -8 -8 -7 -8 -8 -7 -8 -8 -8 -9 -9 -10 -11 -11 -12 -11 -11 -12 -11 -11 -10 -10 -8 -10 -11 -11 -10
-9 -9 -9 -9 -9 -9 -9 -9 -9 -9 -9 -9 -10 -10 -9 -9 -9 -9 -8 -8 -9 -9 -8 -9 -9 -9 -9 -9 -10 -10 -11 -11 -12 -12 -12 -12 -12 -11 -11 -10 -10 -10 -10 -10 -11
-9 -9 -9 -9 -9 -9 -9 -9 -9 -10 -10 -11 -10 -9 -9 -9 -10 -10 -10 -10 -10 -10 -9 -9 -10 -10 -9 -10 -11 -12 -12 -12 -12 -12 -12 -12 -12 -12 -11 -11 -11 -11 -11 -10 -11
-10 -10 -10 -10 -10 -10 -10 -10 -10 -12 -12 -11 -12 -12 -12 -12 -11 -11 -11 -11 -10 -10 -10 -11 -10 -11 -11 -11 -12 -13 -12 -12 -12 -12 -12 -12 -12 -12 -12 -11 -11 -11 -11 -12 -11
-10 -10 -10 -10 -10 -10 -11 -11 -11 -12 -12 -11 -12 -13 -13 -12 -13 -13 -12 -13 -13 -11 -12 -12 -11 -11 -11 -12 -12 -12 -13 -13 -13 -12 -12 -12 -12 -12 -12 -12 -11 -12 -11 -11 -12
-10 -10 -10 -10 -11 -11 -11 -12 -12 -12 -12 -12 -12 -12 -13 -12 -12 -13 -14 -13 -14 -13 -13 -12 -11 -12 -12 -13 -13 -13 -13 -13 -13 -13 -13 -12 -13 -12 -12 -12 -12 -12 -12 -12 -12
-10 -10 -11 -11 -11 -11 -12 -12 -12 -12 -12 -12 -13 -13 -13 -13 -13 -14 -13 -14 -14 -14 -14 -12 -11 -12 -13 -13 -13 -13 -12 -12 -13 -14 -13 -13 -13 -12 -12 -13 -13 -13 -13 -13 -13
-11 -11 -11 -11 -12 -12 -12 -13 -13 -13 -12 -13 -13 -13 -13 -13 -13 -13 -13 -13 -13 -14 -13 -13 -12 -12 -12 -13 -13 -13 -12 -13 -12 -14 -14 -13 -13 -13 -12 -12 -12 -12 -12 -13 -13
-12 -12 -12 -12 -12 -12 -13 -13 -13 -13 -13 -13 -13 -13 -13 -13 -14 -14 -14 -13 -13 -14 -14 -13 -13 -13 -13 -14 -13 -13 -13 -13 -14 -14 -14 -14 -13 -13 -12 -12 -12 -12 -13 -13 -13
-13 -13 -12 -13 -13 -13 -13 -13 -13 -13 -13 -13 -13 -13 -14 -14 -14 -14 -14 -14 -14 -14 -14 -14 -13 -13 -13 -14 -13 -13 -13 -13 -13 -14 -13 -14 -13 -14 -13 -13 -13 -13 -13 -13 -13
-13 -13 -13 -13 -13 -13 -14 -14 -14 -14 -14 -14 -14 -14 -14 -15 -15 -15 -14 -15 -15 -14 -14 -14 -14 -14 -14 -14 -14 -14 -13 -13 -13 -14 -15 -13 -14 -14 -14 -14 -14 -14 -14 -14 -14
-13 -13 -13 -13 -13 -14 -15 -15 -15 -15 -15 -15 -15 -15 -15 -15 -15 -15 -15 -16 -16 -16 -16 -15 -15 -15 -15 -15 -15 -15 -15 -15 -15 -15 -14 -14 -15 -15 -15 -15 -15 -15 -15 -15 -15
-13 -14 -13 -14 -15 -15 -15 -15 -15 -15 -16 -16 -16 -16 -16 -16 -16 -16 -16 -16 -17 -17 -16 -15 -15 -15 -15 -16 -16 -16 -16 -16 -16 -16 -15 -15 -15 -15 -14 -14 -15 -15 -15 -16 -16
-14 -14 -14 -15 -15 -15 -15 -15 -16 -16 -18 -18 -18 -18 -18 -18 -18 -18 -18 -17 -17 -17 -17 -16 -16 -16 -15 -16 -16 -16 -16 -16 -16 -16 -15 -16 -15 -15 -15 -15 -16 -16 -16 -17 -17
Height
5880 5881 5881 5881 5881 5882 5882 5884 5885 5886 5888 5890 5892 5893 5893 5893 5893 5892 5892 5894 5894 5896 5897 5898 5899 5899 5902 5904 5905 5907 5911 5908 5904 5903 5905 5908 5913 5918 5918 5917 5913 5913 5918 5918 5920
5875 5876 5877 5877 5878 5878 5879 5880 5881 5883 5885 5886 5888 5890 5890 5891 5890 5890 5889 5890 5891 5893 5894 5895 5897 5899 5900 5901 5902 5905 5907 5901 5903 5900 5901 5905 5909 5912 5915 5915 5916 5914 5913 5917 5917
5871 5872 5873 5874 5874 5875 5875 5877 5878 5879 5881 5883 5885 5886 5887 5888 5888 5888 5887 5887 5889 5890 5892 5893 5895 5897 5897 5901 5903 5905 5901 5894 5901 5902 5902 5900 5904 5908 5909 5912 5914 5914 5912 5912 5916
5868 5869 5870 5870 5870 5871 5872 5874 5875 5877 5878 5880 5882 5883 5884 5885 5886 5885 5885 5885 5886 5887 5888 5890 5892 5894 5896 5899 5900 5902 5894 5890 5897 5899 5898 5899 5901 5903 5905 5908 5911 5912 5913 5914 5913
5865 5866 5866 5867 5867 5868 5869 5871 5872 5873 5875 5876 5878 5880 5881 5882 5882 5882 5882 5882 5883 5884 5886 5888 5889 5890 5893 5895 5898 5899 5889 5887 5892 5895 5896 5897 5899 5901 5903 5905 5904 5905 5908 5909 5909
5862 5863 5863 5864 5864 5865 5866 5867 5869 5870 5872 5873 5875 5876 5877 5878 5878 5879 5880 5881 5881 5882 5883 5884 5885 5886 5889 5889 5893 5894 5882 5883 5887 5890 5892 5893 5892 5895 5898 5899 5900 5899 5901 5903 5903
5858 5860 5860 5860 5861 5861 5862 5863 5865 5866 5868 5869 5871 5871 5872 5874 5874 5876 5877 5878 5878 5879 5879 5880 5881 5883 5885 5888 5889 5886 5882 5883 5885 5887 5888 5888 5889 5892 5893 5893 5894 5895 5895 5897 5899
5856 5856 5858 5857 5858 5858 5859 5860 5861 5863 5864 5865 5866 5866 5867 5868 5870 5870 5872 5873 5875 5875 5876 5876 5879 5880 5883 5885 5886 5883 5879 5879 5880 5884 5884 5885 5888 5891 5892 5891 5890 5889 5892 5894 5895
5853 5853 5854 5854 5854 5855 5856 5856 5857 5859 5859 5861 5861 5861 5862 5863 5864 5866 5867 5868 5869 5871 5872 5873 5875 5876 5878 5880 5882 5879 5877 5877 5878 5882 5883 5881 5883 5888 5889 5888 5887 5886 5887 5889 5891
5850 5851 5851 5851 5851 5852 5852 5853 5853 5854 5855 5856 5857 5858 5859 5859 5859 5859 5861 5862 5863 5865 5866 5867 5869 5871 5873 5874 5877 5878 5876 5875 5874 5878 5879 5876 5876 5881 5884 5886 5885 5884 5884 5884 5884
5847 5847 5848 5848 5848 5848 5849 5849 5851 5851 5851 5852 5852 5852 5853 5853 5853 5854 5854 5856 5857 5859 5860 5860 5862 5866 5868 5869 5871 5871 5872 5871 5870 5874 5869 5868 5868 5871 5876 5879 5882 5884 5884 5881 5880
5843 5843 5844 5843 5844 5844 5843 5843 5843 5847 5846 5845 5847 5846 5848 5848 5848 5848 5850 5851 5852 5853 5852 5855 5859 5859 5859 5860 5862 5862 5864 5865 5865 5862 5862 5862 5861 5862 5866 5868 5872 5875 5876 5875 5874
5838 5839 5839 5838 5838 5838 5838 5837 5837 5839 5841 5839 5841 5839 5842 5844 5843 5842 5844 5843 5845 5845 5846 5847 5853 5849 5851 5852 5854 5855 5856 5859 5858 5857 5856 5857 5854 5856 5858 5858 5859 5862 5864 5864 5865
5835 5835 5834 5834 5835 5834 5833 5833 5832 5833 5834 5836 5834 5833 5832 5833 5835 5835 5837 5837 5837 5839 5837 5839 5841 5841 5843 5844 5846 5847 5851 5852 5850 5849 5848 5851 5849 5850 5850 5849 5851 5853 5854 5854 5856
5832 5831 5832 5831 5831 5830 5829 5828 5828 5830 5828 5830 5827 5828 5827 5829 5830 5828 5829 5829 5828 5829 5828 5835 5834 5835 5833 5837 5838 5840 5844 5845 5845 5842 5841 5842 5842 5845 5842 5842 5845 5847 5845 5846 5846
5829 5828 5828 5828 5827 5826 5825 5825 5826 5826 5820 5819 5819 5820 5822 5825 5824 5821 5821 5822 5822 5822 5821 5827 5826 5825 5827 5829 5829 5833 5834 5837 5836 5835 5829 5835 5836 5834 5835 5840 5838 5839 5838 5838 5839
5826 5824 5824 5823 5823 5822 5822 5822 5823 5820 5816 5814 5815 5814 5813 5815 5817 5816 5814 5812 5814 5815 5816 5816 5819 5821 5821 5821 5823 5824 5826 5826 5826 5823 5820 5828 5826 5826 5827 5827 5830 5830 5830 5831 5832
5822 5821 5821 5819 5818 5818 5817 5818 5817 5813 5810 5809 5811 5809 5809 5808 5807 5809 5808 5806 5807 5805 5805 5805 5809 5814 5817 5816 5818 5818 5819 5817 5817 5817 5819 5819 5814 5813 5817 5818 5819 5819 5821 5822 5826
5820 5818 5817 5816 5814 5814 5814 5812 5810 5807 5806 5806 5808 5806 5805 5805 5804 5803 5802 5802 5799 5796 5798 5797 5800 5806 5806 5808 5808 5808 5806 5812 5811 5810 5809 5808 5807 5807 5809 5811 5812 5813 5813 5815 5816
5816 5815 5814 5812 5811 5810 5808 5806 5804 5802 5801 5802 5803 5802 5799 5798 5797 5796 5798 5796 5793 5791 5789 5787 5787 5796 5799 5799 5798 5792 5796 5798 5794 5796 5798 5796 5798 5797 5798 5801 5803 5804 5805 5806 5805
5814 5813 5810 5808 5807 5806 5804 5801 5800 5796 5795 5797 5794 5792 5790 5788 5787 5787 5787 5787 5784 5782 5781 5779 5780 5788 5793 5790 5785 5785 5783 5786 5788 5786 5785 5785 5785 5789 5790 5790 5792 5792 5792 5793 5793
5814 5812 5810 5808 5807 5804 5802 5799 5795 5792 5788 5786 5787 5785 5781 5779 5778 5776 5773 5774 5775 5774 5774 5774 5771 5774 5782 5781 5775 5776 5776 5777 5776 5776 5773 5771 5775 5777 5779 5780 5781 5781 5780 5780 5782
5812 5809 5808 5805 5803 5801 5799 5795 5789 5786 5783 5779 5777 5777 5775 5769 5769 5766 5765 5763 5763 5762 5763 5765 5765 5762 5764 5772 5763 5761 5766 5765 5762 5761 5762 5762 5764 5766 5768 5771 5772 5772 5771 5771 5770
5811 5808 5805 5802 5800 5797 5793 5789 5784 5778 5774 5771 5766 5764 5763 5760 5757 5755 5756 5753 5750 5751 5751 5751 5753 5753 5754 5756 5757 5757 5746 5750 5751 5751 5750 5749 5754 5756 5761 5762 5762 5762 5762 5761 5761
5807 5804 5801 5797 5791 5786 5781 5776 5773 5769 5764 5757 5752 5748 5746 5744 5743 5742 5742 5742 5740 5738 5737 5739 5740 5741 5741 5742 5743 5743 5742 5741 5740 5743 5741 5742 5746 5750 5752 5752 5752 5752 5753 5750 5749
5805 5800 5795 5789 5784 5779 5774 5768 5762 5758 5748 5743 5737 5733 5730 5729 5726 5725 5726 5726 5727 5726 5723 5724 5727 5728 5730 5732 5732 5730 5730 5731 5732 5731 5730 5731 5733 5736 5738 5738 5739 5739 5740 5738 5733
5802 5797 5790 5784 5777 5771 5765 5756 5749 5741 5734 5725 5719 5715 5714 5712 5709 5711 5710 5712 5712 5713 5716 5715 5715 5716 5716 5718 5719 5722 5720 5722 5724 5725 5725 5724 5726 5724 5725 5725 5727 5728 5726 5725 5725
Wind_Speed
27 25 22 20 18 16 15 16 17 19 19 18 16 14 14 13 11 12 12 13 14 13 14 16 18 18 17 21 28 28 19 18 25 24 15 16 13 17 18 21 30 21 7 4 7
20 19 18 18 17 16 16 16 18 20 17 17 16 15 14 11 11 10 11 12 14 14 14 17 17 16 18 22 27 28 20 31 29 24 17 13 14 16 9 17 14 8 3 3 3
16 16 17 16 17 16 16 14 14 15 16 15 15 15 13 10 10 8 9 11 13 13 14 16 16 18 20 18 22 28 26 39 33 26 19 17 18 19 17 9 7 3 1 5 2
14 14 14 14 14 14 13 14 14 13 16 14 16 14 13 11 11 8 7 8 11 12 14 14 15 17 18 15 22 35 36 40 34 27 24 21 20 18 17 17 13 10 11 9 8
13 13 11 11 12 13 13 14 15 15 14 16 14 15 12 12 11 10 8 7 9 11 12 13 14 16 18 18 24 39 41 42 35 35 33 26 23 22 20 18 18 18 21 18 15
12 12 12 11 11 12 13 15 15 15 15 16 16 14 13 13 14 12 11 9 8 9 10 13 17 18 20 23 28 42 44 41 33 31 34 32 28 25 23 23 23 23 19 17 17
11 13 14 12 11 11 12 13 14 14 15 15 15 14 15 12 15 15 14 12 11 10 12 13 13 16 18 19 29 40 41 33 30 29 34 31 30 25 23 24 23 22 22 16 14
11 13 13 11 11 10 10 11 11 12 13 13 14 16 16 17 14 18 17 16 15 14 15 15 14 16 14 17 27 35 38 37 32 29 33 31 28 24 23 26 24 24 20 21 19
9 10 11 11 12 12 12 12 12 13 13 12 12 13 15 17 18 17 18 19 19 18 18 20 18 19 18 21 25 33 36 37 35 32 30 29 30 27 24 18 16 16 18 21 21
10 9 9 10 11 12 13 13 13 12 12 13 15 17 16 16 18 20 21 21 20 21 21 22 22 22 23 26 25 27 35 37 38 34 30 31 33 26 22 16 13 15 17 22 25
12 13 14 14 15 16 16 17 18 17 18 16 14 16 16 18 19 20 20 19 21 21 22 25 24 20 23 25 24 25 27 30 31 24 30 34 33 29 23 19 19 22 19 18 31
17 19 20 19 21 21 21 22 24 18 19 21 19 20 17 16 17 18 22 23 23 22 26 26 22 23 26 27 26 27 29 31 35 27 30 33 34 33 30 30 28 23 22 22 23
19 21 21 20 22 22 22 23 22 22 19 24 20 22 21 20 20 20 21 22 21 22 24 26 22 29 29 29 27 28 31 32 33 29 32 31 36 35 33 32 37 34 33 33 29
11 12 12 13 14 14 16 17 18 18 18 17 18 19 22 24 21 25 22 24 24 22 26 26 25 30 31 32 31 32 28 31 29 32 33 31 36 36 37 41 37 39 40 38 32
14 15 16 16 17 17 17 17 15 16 19 13 17 16 18 19 20 22 25 27 25 25 30 21 26 30 34 32 31 31 21 30 32 33 36 38 41 42 44 45 42 36 39 32 28
17 18 19 19 19 20 20 19 16 15 17 17 21 20 20 16 17 22 22 23 23 27 29 24 25 31 32 33 34 26 25 31 36 37 44 44 46 48 50 45 46 34 35 33 28
12 12 14 15 15 16 15 13 9 13 19 17 12 16 18 21 19 19 17 22 23 24 21 24 24 26 28 33 35 32 34 39 43 46 50 43 45 49 47 44 34 32 30 30 30
10 11 12 12 12 12 11 9 9 21 26 28 19 14 16 23 22 20 20 21 20 21 21 24 25 21 23 32 33 34 32 38 41 40 44 44 45 46 44 41 37 42 39 34 32
13 13 13 14 14 13 13 12 16 23 28 30 27 27 26 26 25 26 27 30 25 29 31 33 29 24 26 25 25 32 43 35 39 39 39 46 46 47 42 43 46 47 46 41 38
15 16 16 16 16 15 15 18 21 25 28 27 27 32 33 33 34 35 32 34 37 39 41 42 39 28 32 30 32 31 39 42 49 42 43 50 46 47 49 46 43 42 41 38 35
15 14 16 17 16 16 16 20 21 27 29 26 28 32 32 33 35 36 39 40 41 44 47 49 47 37 28 38 43 40 38 37 45 44 47 49 46 44 46 55 51 50 49 39 33
12 11 11 14 14 14 14 16 23 25 30 30 25 25 30 34 36 37 38 39 43 42 42 48 47 51 46 36 41 46 43 42 45 51 52 55 57 50 48 46 49 53 49 51 34
14 16 16 17 18 19 20 22 29 30 33 35 34 31 30 36 34 34 36 41 43 46 46 46 46 48 48 34 46 43 45 41 44 52 51 53 47 49 43 47 50 53 51 52 50
17 18 21 23 25 25 25 26 30 35 37 38 41 41 38 38 39 38 35 38 41 43 45 46 44 45 45 40 40 42 46 50 51 45 54 42 35 37 35 40 41 40 50 50 56
22 25 28 32 32 30 31 32 32 35 40 43 46 47 47 48 46 44 41 38 39 40 41 42 42 42 41 39 34 36 38 39 44 46 51 50 46 44 45 49 49 48 41 39 32
25 32 36 35 33 29 32 36 38 41 46 48 50 51 52 52 54 52 48 43 38 39 43 44 43 44 42 38 36 37 38 38 42 46 50 51 51 49 49 52 50 44 44 49 50
29 33 34 34 32 32 36 40 44 45 40 44 48 49 51 49 51 50 49 47 42 42 42 44 46 46 47 45 43 41 41 41 42 43 46 47 46 48 48 45 42 39 40 37 32
Wind_Direction
252 262 271 271 264 257 254 250 248 248 252 246 240 249 275 275 289 279 257 237 233 221 216 213 214 217 203 198 201 204 176 199 216 224 241 258 276 263 285 285 317 284 294 149 153
250 258 264 262 260 259 259 257 254 250 244 238 238 246 269 266 282 282 249 238 235 224 219 216 217 219 215 199 206 199 188 217 212 234 255 249 270 277 281 302 323 44 89 174 255
248 254 258 257 260 260 259 249 244 244 232 237 238 245 267 260 271 289 263 240 238 230 225 220 215 212 216 209 206 186 205 228 221 241 263 261 265 278 286 311 264 31 138 291 292
250 251 253 259 260 252 240 243 239 238 242 248 244 255 262 257 262 270 267 249 241 233 231 227 217 209 212 211 201 186 214 235 228 239 251 255 263 276 285 286 262 269 261 273 254
249 249 252 256 248 243 236 241 239 238 236 242 243 253 257 251 254 261 266 253 244 238 238 228 214 206 202 201 201 192 220 233 240 241 250 263 272 272 278 293 293 282 248 269 266
249 251 250 248 245 240 238 240 242 238 233 234 239 242 255 247 241 251 254 259 245 234 228 219 218 217 211 198 200 194 224 237 252 255 256 266 275 283 291 293 297 295 281 260 266
253 255 252 248 246 243 241 243 249 247 242 239 238 245 251 239 240 240 244 246 247 240 233 237 236 229 223 210 208 208 229 251 258 258 258 270 280 288 296 302 295 292 282 273 266
257 250 246 241 243 243 241 242 246 249 248 247 244 242 242 240 235 241 235 237 241 243 243 247 237 240 241 218 219 219 236 245 255 258 259 266 272 283 299 297 296 287 271 268 275
245 240 237 239 246 249 249 246 248 251 252 250 246 246 240 239 231 231 236 235 237 238 241 245 244 240 230 228 225 231 241 248 256 261 264 276 286 288 284 289 308 290 262 262 270
240 242 244 245 247 246 247 248 246 245 248 246 248 246 245 244 239 235 232 234 234 236 238 241 238 235 234 237 240 233 236 248 254 259 274 265 266 268 265 264 303 316 279 264 264
256 257 257 259 260 261 261 261 261 256 261 258 251 253 249 250 246 242 241 237 238 240 242 240 240 241 238 242 237 237 240 246 250 241 247 256 260 268 261 270 281 289 271 279 261
256 258 259 260 263 264 263 263 262 264 268 260 261 259 250 248 250 247 244 239 237 236 239 244 244 241 239 238 233 233 238 241 237 233 252 262 270 269 271 272 282 267 261 265 269
258 260 260 262 263 263 263 265 269 269 259 271 265 263 263 257 251 252 245 245 242 241 245 245 234 237 237 235 231 237 239 241 242 243 257 256 264 272 279 278 280 280 286 287 288
253 255 258 261 261 265 269 275 272 269 268 265 261 258 257 253 249 251 252 250 249 244 245 242 235 240 239 236 230 227 232 233 236 241 253 262 269 264 268 271 277 286 293 295 287
262 263 266 267 271 276 272 274 281 285 270 257 253 253 257 268 263 261 254 251 245 241 246 245 239 241 238 235 226 235 224 221 237 255 263 259 262 261 261 269 276 286 282 282 268
269 268 269 268 268 268 270 273 272 276 265 263 260 254 258 252 263 264 268 256 251 251 252 243 240 239 240 233 224 227 224 231 239 253 256 254 258 260 260 266 274 278 281 276 262
277 279 280 278 276 274 275 275 263 246 239 252 263 258 269 266 261 277 277 273 266 260 252 250 243 251 249 238 221 222 225 232 235 243 252 259 263 264 263 266 270 273 273 277 264
303 297 293 292 291 289 289 281 248 240 246 243 226 223 250 275 283 285 266 258 271 256 259 251 238 242 238 235 234 229 229 238 248 251 249 247 255 261 263 268 272 274 272 278 277
304 300 298 297 298 297 286 266 246 248 251 250 258 247 246 256 260 267 273 270 249 254 259 262 252 212 215 210 226 241 239 237 250 253 249 249 252 257 257 259 263 268 280 282 280
309 309 307 304 302 297 284 271 262 266 268 271 260 256 261 261 264 265 265 262 253 246 250 254 257 237 220 222 223 256 242 238 239 244 246 247 247 252 254 255 263 270 268 276 279
328 331 324 322 319 312 303 299 295 286 284 274 270 268 266 266 263 269 262 251 254 246 250 250 256 254 233 229 237 235 251 237 241 242 243 242 245 246 251 250 257 269 269 270 279
357 350 344 336 331 324 318 304 297 291 295 295 289 281 277 271 270 270 263 261 256 261 258 262 263 264 245 245 246 247 244 245 229 236 241 247 248 249 247 250 257 261 268 270 272
355 341 338 334 329 326 314 300 297 296 294 293 287 282 281 282 280 274 270 264 261 262 261 259 265 271 271 258 248 241 241 244 233 230 236 245 244 242 248 258 260 264 268 269 273
353 345 337 335 332 323 315 306 297 295 290 287 287 284 278 273 274 272 268 269 267 265 266 267 267 269 275 276 264 267 252 239 255 275 273 270 262 270 277 271 272 267 266 267 277
350 345 335 336 329 324 315 308 298 288 284 281 278 275 273 270 267 267 265 264 267 269 269 267 269 268 267 272 269 260 260 266 269 268 269 272 278 273 276 280 287 284 279 281 245
346 346 341 338 327 316 317 314 309 300 290 282 277 275 271 270 271 269 265 263 258 259 263 263 262 263 265 267 270 266 264 259 256 262 268 274 274 275 272 275 282 290 283 281 292
352 353 343 336 326 319 321 320 319 311 301 293 286 281 277 277 272 269 272 270 269 262 260 265 269 271 274 275 272 266 265 266 264 263 264 267 272 277 280 281 282 278 278 283 285